Regional Weather Roundup
Issued by NWS State College, PA

Home | Current Version | Previous Version | Text Only | Print | Product List | Glossary On
Versions: 1 2 3 4 5 6 7 8 9 10 11 12 13 14 15 16 17 18 19 20 21 22 23 24 25 26 27 28 29 30 31 32 33 34 35 36 37 38 39 40 41 42 43 44 45 46 47 48 49 50
000
ASUS41 KCTP 250110
RWRCTP

REGIONAL WEATHER ROUNDUP
NATIONAL WEATHER SERVICE STATE COLLEGE PA
800 PM EST FRI FEB 24 2017

Note: "fair" indicates few or no clouds below 12,000 feet with no
significant weather and/or obstructions to visibility.

* = STATION THAT DOES NOT REPORT PRECIPITATION /E.G. RAIN...SNOW...ETC/
    THUNDER OR FOG.

PAZ002>004-007>009-013>016-020>023-029>032-250200-
WESTERN PENNSYLVANIA

CITY           SKY/WX    TMP DP  RH WIND       PRES   REMARKS
ERIE           CLOUDY    50  44  80 E7        29.58F
MEADVILLE      CLOUDY    65  48  54 CALM      29.62F
FRANKLIN*      CLOUDY    63  46  55 S5        29.65F
NEW CASTLE     FAIR      63  48  58 CALM      29.62F
BEAVER COUNTY  CLEAR     70  46  43 CALM      29.62F
BUTLER*        CLEAR     59  46  63 CALM      29.64F
PITTSBURGH INT MOCLDY    68  47  46 CALM      29.62S
PITTSBURGH     CLEAR     69  44  40 SE5       29.61F
INDIANA*       CLEAR     70  48  46 S17G24    29.68S
LATROBE        CLEAR     70  48  46 S17       29.64F
WASHINGTON CO* PTCLDY    59  45  58 CALM      29.64S
$$

PAZ004>006-010>012-017>019-024>028-033>037-041-042-045-046-049>053-250200-
CENTRAL PENNSYLVANIA

CITY           SKY/WX    TMP DP  RH WIND       PRES   REMARKS
BRADFORD       CLOUDY    62  48  60 SE5       29.68F
DUBOIS         PTCLDY    66  46  48 SE9       29.67S
CLEARFIELD       N/A    N/A N/A N/A MISG      29.70S
JOHNSTOWN      CLOUDY    63  49  60 SE16G23   29.70S
ALTOONA        CLOUDY    67  50  54 S18G30    29.73S
STATE COLLEGE  NOT AVBL
WILLIAMSPORT   CLOUDY    68  52  56 SE15G29   29.73R
SELINSGROVE    CLEAR     65  53  65 S14       29.75F
FT INDIANTOWN  PTCLDY    64  55  73 SW6       29.80R
CAPITAL CITY   CLEAR     68  53  58 S9        29.78S
HARRISBURG     PTCLDY    64  54  69 S12G20    29.77F
YORK           CLEAR     63  55  75 SE7       29.79S
$$

PAZ038>040-043-044-047-048-054-055-060>062-067>071-250200-
EASTERN PENNSYLVANIA

CITY           SKY/WX    TMP DP  RH WIND       PRES   REMARKS
SCRANTON       CLEAR     66  50  56 S8        29.78F
MOUNT POCONO   CLOUDY    59  51  75 S9        29.83F
ALLENTOWN      PTCLDY    66  53  63 S9G20     29.81F
QUAKERTOWN*    CLEAR     64  55  72 S8G16     29.83F
READING        CLEAR     65  55  70 SE9       29.80S
LANCASTER      CLEAR     61  53  75 SE8       29.81R
COATESVILLE    CLEAR     61  54  77 SE6       29.84S
POTTSTOWN      CLEAR     62  54  74 VRB6      29.84S
BLUE BELL      CLEAR     61  55  82 S6        29.83S
DOYLESTOWN     CLEAR     64  56  75 S8        29.83S
WILLOW GROVE   NOT AVBL
NORTH PHILA    CLEAR     65  56  72 S5        29.86R
PHILADELPHIA   PTCLDY    63  56  78 SE9       29.85S
$$




USA.gov is the U.S. government's official web portal to all federal, state and local government web resources and services.